PBO Station Position Time Series. Reference Frame : NAM14
Format Version,1.1.0
4-character ID,LBC2
Station name,Long_Beach2SCIGN
Begin Date, 1998-10-23
End Date, 2019-10-07
Release Date, 2019-10-08
Reference position, 33.7916091515 North Latitude, -118.1732425425 East Longitude, -28.46098 meters elevation,
Date, North (mm), East (mm), Vertical (mm), North Std. Deviation (mm), East Std. Deviation (mm),              Vertical Std. Deviation (mm), Quality,
1998-10-23,0.00, 0.00, 0.00, 2.27, 1.98, 8.39, repro,
1998-10-24,0.47, 0.84, 8.24, 2.52, 2.36, 9.64, repro,
1998-10-25,1.62, -2.99, 4.02, 2.14, 1.90, 8.24, repro,
1998-10-26,0.79, -0.15, 14.65, 2.24, 1.99, 8.46, repro,
1998-10-27,5.46, -0.25, 1.28, 2.21, 2.03, 8.36, repro,
1998-10-28,1.68, 0.09, 0.03, 2.34, 2.15, 8.89, repro,
1998-10-29,2.15, -0.61, 19.73, 2.12, 1.88, 8.11, repro,
1998-10-30,0.71, -2.51, 11.95, 2.16, 1.96, 8.26, repro,
1998-10-31,-0.50, 0.62, 16.18, 2.19, 1.90, 8.29, repro,
1998-11-01,1.01, 1.55, 1.12, 2.21, 1.92, 8.36, repro,
1998-11-02,-0.76, 1.43, 10.75, 2.22, 1.94, 8.70, repro,
1998-11-03,0.96, 0.97, 3.85, 2.41, 2.12, 9.29, repro,
1998-11-04,-0.52, -0.33, 10.06, 2.38, 2.20, 9.23, repro,
1998-11-05,1.32, -0.66, 11.52, 2.30, 2.10, 8.79, repro,
1998-11-06,1.71, -0.86, 10.26, 2.15, 1.95, 8.32, repro,
1998-11-07,0.95, -0.65, 11.90, 2.13, 1.88, 8.38, repro,
1998-11-08,1.16, 0.01, 5.85, 2.18, 2.00, 8.46, repro,
1998-11-09,-0.19, -0.46, 6.90, 2.14, 1.89, 8.15, repro,
1998-11-10,2.39, 0.24, 6.50, 2.20, 1.90, 8.50, repro,
1998-11-11,0.30, 0.12, 7.59, 2.23, 1.96, 8.54, repro,
1998-11-12,0.65, -1.34, 12.56, 2.22, 1.93, 8.29, repro,
1998-11-13,1.24, -2.23, 11.71, 2.39, 2.20, 9.30, repro,
1998-11-14,-0.46, -0.70, 11.45, 2.19, 1.90, 8.27, repro,
1998-11-15,-0.46, -1.13, 11.57, 2.13, 1.83, 8.07, repro,
1998-11-16,-0.37, -2.13, 12.52, 2.18, 1.85, 8.15, repro,
1998-11-17,0.23, -1.51, 5.59, 2.24, 1.91, 8.41, repro,
1998-11-18,-0.03, -1.17, 8.15, 2.13, 1.84, 8.07, repro,
1998-11-19,0.75, -1.77, 11.02, 2.19, 1.88, 8.27, repro,
1998-11-20,0.38, -1.39, 7.54, 2.11, 1.82, 7.97, repro,
1998-11-21,0.91, -1.15, 13.54, 2.41, 2.15, 9.30, repro,
1998-11-22,0.50, -2.25, 13.23, 2.11, 1.84, 7.99, repro,
1998-11-23,13.98, 140.97, 2.27, 27.70, 103.57, 79.95, repro,
1998-11-24,0.80, -0.69, 7.07, 2.42, 2.10, 9.09, repro,
1998-11-25,0.79, -2.29, 10.64, 2.09, 1.81, 7.87, repro,
1998-11-26,-0.64, -2.84, 8.20, 2.25, 1.95, 8.60, repro,
1998-11-27,0.18, -2.15, 15.66, 2.19, 1.87, 8.25, repro,
1998-11-28,-1.15, -5.17, 7.95, 2.21, 1.91, 8.37, repro,
1998-11-29,-1.23, -3.63, 19.16, 2.13, 1.82, 8.07, repro,
1998-11-30,0.99, -2.47, 11.90, 2.31, 2.00, 8.70, repro,
1998-12-01,0.37, -2.62, 6.91, 2.22, 1.92, 8.19, repro,
1998-12-02,1.41, -2.38, 6.75, 2.15, 1.85, 8.20, repro,
1998-12-03,0.57, -3.78, 10.07, 2.17, 1.87, 8.25, repro,
1998-12-04,-1.17, -4.32, 15.15, 2.25, 1.95, 8.44, repro,
1998-12-05,1.26, -3.29, 4.61, 2.20, 1.93, 8.21, repro,
1998-12-06,0.83, -3.30, 14.24, 2.17, 1.98, 8.40, repro,
1998-12-07,0.63, -1.79, 10.47, 2.15, 1.97, 8.24, repro,
1998-12-08,-1.43, -0.98, 3.18, 2.43, 2.12, 9.40, repro,
1998-12-09,-0.47, -3.92, 1.34, 2.16, 1.95, 8.33, repro,
1998-12-10,0.72, -2.03, -0.21, 2.19, 2.05, 8.42, repro,
1998-12-11,-0.13, -1.19, 9.52, 2.30, 2.19, 8.83, repro,
1998-12-12,-1.20, -2.68, 8.17, 2.21, 2.03, 8.46, repro,
1998-12-13,-0.83, -2.06, 2.21, 2.14, 1.93, 8.23, repro,
1998-12-14,-0.81, -1.81, 4.41, 2.27, 2.00, 8.98, repro,
1998-12-15,-0.78, -1.83, -2.14, 2.16, 1.92, 8.37, repro,
1998-12-16,-0.62, -2.00, 1.29, 2.17, 1.97, 8.30, repro,
1998-12-17,-0.79, -2.15, 7.82, 2.05, 1.83, 7.90, repro,
1998-12-18,-2.71, -3.06, 4.76, 2.19, 1.92, 8.52, repro,
1998-12-19,-3.73, -3.42, 10.56, 2.76, 2.56, 11.13, repro,
1998-12-20,-1.66, -3.72, 12.63, 2.18, 1.93, 8.36, repro,
1998-12-21,0.36, -2.53, 5.59, 2.18, 2.02, 8.40, repro,
1998-12-22,-0.89, -2.59, 5.31, 2.24, 2.00, 8.63, repro,
1998-12-23,-1.06, -3.84, 0.87, 2.14, 1.93, 8.18, repro,
1998-12-24,-3.19, -2.49, 10.56, 2.31, 2.07, 8.90, repro,
1998-12-25,0.02, -3.98, 3.22, 2.36, 2.19, 9.38, repro,
1998-12-26,0.21, -3.33, 7.62, 2.17, 1.98, 8.31, repro,
1998-12-27,-1.92, -3.39, -6.12, 2.28, 2.03, 8.75, repro,
1998-12-28,-0.67, -3.84, 9.65, 2.25, 2.00, 8.63, repro,
1998-12-29,-1.15, -2.85, -1.64, 2.21, 1.98, 8.70, repro,
1998-12-30,-2.94, -4.03, 7.78, 2.32, 2.21, 9.07, repro,
1998-12-31,-1.97, -3.88, 15.34, 2.35, 2.08, 9.07, repro,
1999-01-01,-2.57, -3.24, -4.34, 2.27, 2.05, 8.88, repro,
1999-01-02,-2.15, -3.36, 2.57, 2.30, 2.10, 8.78, repro,
1999-01-03,-3.47, -3.20, -2.80, 3.56, 3.33, 14.28, repro,
1999-01-04,-2.55, -2.69, 4.54, 2.29, 2.01, 8.69, repro,
1999-01-05,-1.48, -2.90, 7.53, 2.30, 2.17, 8.87, repro,
1999-01-06,-2.65, -2.83, 8.06, 2.18, 2.00, 8.73, repro,
1999-01-07,-3.80, -3.89, 2.79, 2.15, 1.91, 8.34, repro,
1999-01-08,-1.40, -2.24, 3.94, 2.07, 1.86, 8.00, repro,
1999-01-09,-1.86, -3.68, 0.11, 2.17, 1.91, 8.41, repro,
1999-01-10,-0.90, -3.76, -4.04, 2.21, 1.93, 8.70, repro,
1999-01-11,-3.49, -4.03, 1.00, 2.25, 2.02, 9.12, repro,
1999-01-12,-1.68, -5.45, 15.68, 2.13, 1.98, 8.34, repro,
1999-01-13,-1.47, -4.24, 1.37, 2.21, 1.90, 8.42, repro,
1999-01-14,-2.93, -4.96, 10.71, 2.30, 1.97, 8.83, repro,
1999-01-15,-1.52, -6.16, 4.13, 2.22, 1.97, 8.67, repro,
1999-01-16,-2.50, -3.16, 8.29, 2.14, 1.88, 8.20, repro,
1999-01-17,-3.31, -4.45, 6.76, 2.15, 1.91, 8.41, repro,
1999-01-18,-2.27, -3.43, 5.27, 2.09, 1.83, 7.89, repro,
1999-01-19,-2.25, -4.49, 2.13, 2.06, 1.82, 7.83, repro,
1999-01-20,-3.25, -3.10, 2.88, 2.20, 1.88, 8.48, repro,
1999-01-21,-2.88, -4.01, -1.84, 2.25, 1.97, 8.69, repro,
1999-01-22,-2.76, -3.57, 8.94, 2.11, 1.87, 8.22, repro,
1999-01-23,-1.19, -4.79, 9.20, 2.25, 1.98, 8.79, repro,
1999-01-24,-1.75, -3.79, -7.06, 2.26, 1.90, 8.87, repro,
1999-01-25,-2.25, -3.68, 7.97, 2.28, 2.01, 9.04, repro,
1999-01-26,-2.22, -4.92, 7.69, 2.38, 1.96, 9.46, repro,
1999-01-27,-3.48, -4.29, -0.16, 2.23, 1.87, 8.50, repro,
1999-01-28,-2.16, -4.39, 1.56, 2.15, 1.89, 8.33, repro,
1999-01-29,-1.24, -3.33, 11.38, 2.33, 2.00, 9.20, repro,
1999-01-30,-1.91, -4.11, 19.12, 2.41, 2.11, 9.49, repro,
1999-01-31,0.52, -3.34, 15.56, 2.28, 2.08, 9.12, repro,
1999-02-01,-1.28, -4.45, 13.83, 2.09, 1.82, 7.99, repro,
1999-02-02,-1.82, -3.24, 10.65, 2.27, 1.91, 8.81, repro,
1999-02-03,-3.07, -5.10, 13.18, 2.28, 1.94, 8.89, repro,
1999-02-04,-1.24, -6.13, 13.55, 2.20, 1.87, 8.49, repro,
1999-02-05,-1.18, -5.08, 5.61, 2.17, 1.88, 8.54, repro,
1999-02-06,-1.13, -5.21, 11.89, 2.30, 2.04, 9.33, repro,
1999-02-07,-3.29, -4.40, 6.80, 2.22, 1.92, 8.72, repro,
1999-02-08,-3.08, -3.75, 15.17, 2.10, 1.89, 8.23, repro,
1999-02-09,-2.13, -3.92, 11.00, 2.27, 1.93, 8.82, repro,
1999-02-10,-2.48, -3.05, 12.48, 2.20, 1.93, 8.68, repro,
1999-02-11,-2.13, -3.20, -2.27, 2.26, 1.93, 8.86, repro,
1999-02-12,-1.61, -3.55, -1.18, 2.35, 1.97, 9.32, repro,
1999-02-13,-2.65, -4.50, -3.46, 2.10, 1.85, 8.11, repro,
1999-02-14,-3.50, -4.30, -3.68, 2.21, 1.93, 8.67, repro,
1999-02-15,-3.39, -3.55, 7.12, 2.23, 1.91, 8.73, repro,
1999-02-16,-3.68, -4.17, 6.14, 2.19, 1.98, 8.83, repro,
1999-02-17,-2.64, -6.12, 5.52, 2.25, 1.89, 8.57, repro,
1999-02-18,-4.21, -6.32, 23.87, 2.13, 1.90, 8.42, repro,
1999-02-19,-1.24, -5.33, 6.32, 2.21, 1.93, 8.66, repro,
1999-02-20,-3.31, -4.77, 7.49, 2.17, 1.91, 8.38, repro,
1999-02-21,-2.90, -5.26, -0.40, 2.10, 1.86, 8.11, repro,
1999-02-22,-1.79, -4.30, 3.31, 2.15, 1.87, 8.22, repro,
1999-02-23,-2.84, -4.41, -1.75, 2.07, 1.83, 7.85, repro,
1999-02-24,-3.16, -5.00, 3.17, 2.09, 1.84, 7.90, repro,
1999-02-25,-3.44, -5.57, 2.66, 2.07, 1.84, 7.98, repro,
1999-02-26,-2.83, -4.61, 4.62, 2.12, 1.90, 8.10, repro,
1999-02-27,-1.84, -4.90, 1.95, 2.14, 1.86, 8.18, repro,
1999-02-28,-3.14, -4.19, 5.47, 2.05, 1.83, 7.89, repro,
1999-03-01,-3.11, -4.08, 1.53, 2.15, 1.86, 8.20, repro,
1999-03-02,-3.28, -4.46, -2.55, 2.15, 1.86, 8.24, repro,
1999-03-03,-3.86, -4.08, -0.69, 2.09, 1.88, 8.06, repro,
1999-03-04,-4.64, -5.00, 0.93, 2.18, 1.87, 8.53, repro,
1999-03-05,-3.57, -5.41, -4.17, 2.08, 1.83, 7.94, repro,
1999-03-06,-5.78, -4.88, -5.74, 2.12, 1.92, 8.13, repro,
1999-03-07,-4.62, -4.66, -5.40, 2.10, 1.85, 8.06, repro,
1999-03-08,-4.26, -5.50, -0.44, 2.08, 1.84, 7.94, repro,
1999-03-09,-3.87, -6.53, -0.50, 2.08, 1.86, 8.00, repro,
1999-03-10,-4.09, -6.16, -3.31, 2.09, 1.88, 8.02, repro,
1999-03-11,-3.55, -5.86, 1.89, 2.11, 1.84, 7.97, repro,
1999-03-12,-3.69, -4.87, -4.55, 2.14, 1.85, 8.00, repro,
1999-03-13,-3.06, -4.23, 5.65, 2.12, 1.89, 8.09, repro,
1999-03-14,-3.09, -4.57, 3.16, 2.08, 1.83, 7.89, repro,
1999-03-15,-3.21, -3.54, 3.97, 2.20, 1.96, 8.47, repro,
1999-03-16,-4.29, -4.05, 9.42, 2.37, 2.11, 9.12, repro,
1999-03-17,-2.52, -3.36, -1.77, 2.13, 1.89, 8.14, repro,
1999-03-18,-2.44, -4.20, 3.09, 2.19, 1.98, 8.28, repro,
1999-03-19,-2.37, -4.56, 1.33, 2.36, 2.06, 9.10, repro,
1999-03-20,-1.81, -5.63, 8.67, 2.31, 2.08, 8.94, repro,
1999-03-21,-3.70, -5.88, 10.28, 2.23, 1.99, 8.56, repro,
1999-03-22,-1.72, -4.31, 7.76, 2.25, 2.06, 8.79, repro,
1999-03-23,-0.49, -3.90, 6.11, 2.23, 2.00, 8.60, repro,
1999-03-24,-3.89, -6.48, 12.46, 2.44, 2.28, 9.92, repro,
1999-03-25,-5.06, -5.71, 6.91, 2.53, 2.26, 10.09, repro,
1999-03-26,-4.52, -6.81, 4.67, 2.45, 2.27, 9.76, repro,
1999-03-27,-3.45, -4.24, -1.75, 2.16, 1.96, 8.34, repro,
1999-03-28,-1.48, -4.52, 2.68, 2.28, 2.06, 8.87, repro,
1999-03-29,-3.73, -6.09, -0.15, 2.33, 2.23, 9.44, repro,
1999-03-30,-4.15, -5.18, -1.19, 2.27, 2.01, 8.87, repro,
1999-03-31,-6.04, -6.20, -0.03, 2.36, 1.98, 8.93, repro,
1999-04-01,-5.07, -6.05, 10.93, 2.17, 1.94, 8.24, repro,
1999-04-02,-6.31, -4.83, -3.79, 2.30, 1.99, 8.70, repro,
1999-04-03,-4.45, -4.20, -3.18, 2.15, 1.89, 8.18, repro,
1999-04-04,-4.14, -6.56, 4.87, 2.17, 1.91, 8.26, repro,
1999-04-05,-3.51, -4.23, 2.45, 2.35, 2.06, 9.11, repro,
1999-04-06,-2.31, -3.83, 6.82, 2.17, 1.89, 8.19, repro,
1999-04-07,-2.12, -4.91, 17.72, 2.18, 1.95, 8.37, repro,
1999-04-08,-2.64, -4.79, 6.47, 2.15, 1.90, 8.25, repro,
1999-04-09,-0.71, -4.60, 13.93, 2.22, 2.05, 8.73, repro,
1999-04-10,-2.21, -3.78, 3.50, 2.13, 1.89, 8.16, repro,
1999-04-11,-1.12, -4.87, 7.90, 2.12, 1.92, 8.22, repro,
1999-04-12,-2.95, -5.94, 7.13, 2.17, 1.96, 8.51, repro,
1999-04-13,-1.70, -5.80, 1.88, 2.14, 1.89, 8.17, repro,
1999-04-14,-1.95, -4.01, 1.41, 2.11, 1.90, 8.17, repro,
1999-04-15,-2.21, -5.76, 9.27, 2.11, 1.90, 8.15, repro,
1999-04-16,-0.48, -4.62, 6.74, 2.10, 1.93, 8.18, repro,
1999-04-17,-1.73, -5.27, 7.05, 2.18, 1.90, 8.41, repro,
1999-04-18,-1.73, -5.28, 10.06, 2.11, 1.89, 8.21, repro,
1999-04-19,-2.55, -5.33, 7.91, 2.10, 1.89, 8.20, repro,
1999-04-20,-1.18, -5.18, 12.89, 2.14, 1.90, 8.41, repro,
1999-04-21,-1.83, -5.84, 17.53, 2.13, 1.89, 8.42, repro,
1999-04-22,-2.14, -4.95, 14.17, 2.16, 1.89, 8.38, repro,
1999-04-23,-2.94, -5.73, 20.69, 2.16, 1.94, 8.39, repro,
1999-04-24,-3.29, -4.97, 10.57, 2.14, 1.88, 8.21, repro,
1999-04-25,-0.67, -4.97, 18.38, 2.17, 1.94, 8.56, repro,
1999-04-26,-1.05, -3.91, 12.67, 2.10, 1.88, 8.14, repro,
1999-04-27,-0.94, -5.30, 19.03, 2.12, 1.90, 8.19, repro,
1999-04-28,-1.72, -4.13, 22.45, 2.15, 1.94, 8.31, repro,
1999-04-29,-2.03, -7.01, 17.37, 2.16, 1.99, 8.47, repro,
1999-04-30,-2.05, -4.93, 10.51, 2.17, 1.99, 8.46, repro,
1999-05-01,-1.49, -5.32, 10.33, 2.24, 2.08, 8.59, repro,
1999-05-02,-0.01, -4.73, 16.98, 2.12, 1.97, 8.38, repro,
1999-05-03,-2.02, -5.56, 28.77, 2.16, 2.01, 8.47, repro,
1999-05-04,-0.73, -5.06, 25.43, 2.18, 2.02, 8.59, repro,
1999-05-05,-0.29, -4.20, 19.92, 2.21, 2.04, 8.50, repro,
1999-05-06,-0.88, -4.41, 10.88, 2.23, 1.99, 8.68, repro,
1999-05-07,-1.05, -3.68, 11.77, 2.11, 1.88, 8.15, repro,
1999-05-08,-0.17, -4.36, 18.29, 2.12, 1.96, 8.26, repro,
1999-05-09,-0.12, -4.07, 10.80, 2.16, 1.97, 8.34, repro,
1999-05-10,-1.17, -3.63, 13.78, 2.13, 1.90, 8.27, repro,
1999-05-11,-0.47, -3.47, 10.75, 2.15, 1.97, 8.42, repro,
1999-05-12,0.21, -2.84, 9.07, 2.19, 2.02, 8.56, repro,
1999-05-13,-1.30, -3.46, 17.32, 2.11, 1.95, 8.29, repro,
1999-05-14,-1.43, -3.29, 13.25, 2.15, 1.98, 8.36, repro,
1999-05-15,-0.10, -3.40, 13.94, 2.16, 1.99, 8.43, repro,
1999-05-16,-0.07, -2.83, 9.63, 2.16, 1.98, 8.38, repro,
1999-05-17,0.88, -4.04, 16.09, 2.19, 2.02, 8.56, repro,
1999-05-18,0.66, -3.12, 19.79, 2.24, 2.08, 9.02, repro,
1999-05-19,0.50, -3.03, 20.49, 2.14, 1.91, 8.51, repro,
1999-05-20,-0.59, -3.44, 8.84, 2.16, 1.96, 8.32, repro,
1999-05-21,0.52, -4.22, 16.37, 2.14, 1.95, 8.27, repro,
1999-05-22,-0.20, -5.07, 23.22, 2.14, 1.97, 8.31, repro,
1999-05-23,-0.66, -4.17, 17.74, 2.15, 1.97, 8.34, repro,
1999-05-24,0.02, -4.31, 14.73, 2.11, 1.94, 8.23, repro,
1999-05-25,-0.19, -2.85, 18.16, 2.14, 1.97, 8.36, repro,
1999-05-26,-0.71, -3.53, 12.34, 2.12, 1.95, 8.22, repro,
1999-05-27,0.86, -3.56, 20.98, 2.09, 1.89, 8.12, repro,
1999-05-28,1.29, -4.33, 26.40, 2.10, 1.89, 8.19, repro,
1999-05-29,-4.33, 2.27, 23.63, 4.95, 6.93, 19.78, repro,
1999-05-30,-0.44, -3.08, 10.32, 2.09, 1.88, 8.15, repro,
1999-05-31,-0.68, -4.16, 13.88, 2.13, 1.88, 8.18, repro,
1999-06-01,0.76, -4.28, 25.11, 2.19, 1.89, 8.50, repro,
1999-06-02,-0.33, -3.77, 22.16, 2.14, 1.89, 8.18, repro,
1999-06-03,1.06, -5.12, 30.44, 2.17, 1.92, 8.35, repro,
1999-06-04,1.08, -3.71, 23.21, 2.13, 1.87, 8.21, repro,
1999-06-05,1.53, -2.85, 25.87, 2.09, 1.89, 8.20, repro,
1999-06-06,1.26, -2.97, 19.18, 2.17, 1.94, 8.36, repro,
1999-06-07,0.08, -4.78, 24.26, 2.15, 1.94, 8.31, repro,
1999-06-08,0.67, -3.75, 26.17, 2.08, 1.87, 8.09, repro,
1999-06-09,0.27, -3.43, 26.82, 2.11, 1.88, 8.21, repro,
1999-06-10,2.17, -1.30, 41.63, 4.05, 3.79, 17.34, repro,
1999-06-11,0.66, -4.45, 18.42, 2.15, 1.89, 8.49, repro,
1999-06-12,0.31, -4.55, 22.00, 2.09, 1.86, 8.05, repro,
1999-06-13,0.87, -5.26, 19.03, 2.11, 1.90, 8.23, repro,
1999-06-14,0.73, -3.27, 17.01, 2.28, 1.91, 8.89, repro,
1999-06-15,-1.33, -4.17, 20.01, 2.15, 1.89, 8.31, repro,
1999-06-16,0.07, -3.77, 23.99, 2.09, 1.88, 8.16, repro,
1999-06-17,0.54, -3.54, 16.25, 2.13, 1.87, 8.15, repro,
1999-06-18,0.46, -3.79, 18.97, 2.07, 1.87, 8.04, repro,
1999-06-19,0.69, -4.06, 17.40, 2.12, 1.88, 8.26, repro,
1999-06-20,-1.12, -4.28, 23.45, 2.08, 1.87, 8.12, repro,
1999-06-21,-2.00, -4.86, 17.81, 2.11, 1.85, 8.32, repro,
1999-06-22,0.59, -3.75, 23.32, 2.22, 1.89, 8.63, repro,
1999-06-23,0.89, -3.75, 24.99, 2.14, 1.86, 8.30, repro,
1999-06-24,-0.95, -3.85, 20.09, 2.17, 1.90, 8.45, repro,
1999-06-25,-0.30, -3.37, 27.63, 2.25, 1.97, 8.68, repro,
1999-06-26,0.88, -3.82, 27.38, 2.23, 1.95, 8.59, repro,
1999-06-27,-0.83, -4.27, 33.40, 2.20, 1.89, 8.77, repro,
1999-06-28,-1.63, -5.10, 19.27, 2.13, 1.89, 8.20, repro,
1999-06-29,-0.18, -4.27, 19.05, 2.34, 2.03, 9.06, repro,
1999-06-30,0.26, -4.42, 22.21, 2.15, 1.90, 8.47, repro,
1999-07-01,0.55, -4.38, 27.57, 2.36, 2.03, 9.46, repro,
1999-07-02,0.41, -4.39, 29.60, 2.20, 1.93, 8.83, repro,
1999-07-03,-0.96, -5.40, 32.93, 2.23, 1.91, 8.92, repro,
1999-07-04,0.19, -3.96, 22.92, 2.14, 1.89, 8.42, repro,
1999-07-05,0.03, -5.44, 24.20, 2.13, 1.88, 8.42, repro,
1999-07-06,0.82, -4.52, 23.81, 2.16, 1.94, 8.56, repro,
1999-07-07,0.76, -4.38, 29.49, 2.35, 1.97, 8.99, repro,
1999-07-08,0.22, -4.46, 35.97, 2.23, 1.93, 8.59, repro,
1999-07-09,-0.10, -2.22, 33.09, 2.23, 1.93, 8.73, repro,
1999-07-10,0.55, -3.57, 30.78, 2.24, 1.96, 8.73, repro,
1999-07-11,-0.02, -4.56, 22.87, 2.19, 1.90, 8.49, repro,
1999-07-12,0.47, -3.42, 21.77, 2.13, 1.90, 8.26, repro,
1999-07-13,-1.20, -5.59, 27.53, 2.21, 1.87, 8.64, repro,
1999-07-14,-1.99, -3.22, 20.50, 2.12, 1.85, 8.32, repro,
1999-07-15,-1.17, -5.70, 17.96, 2.14, 1.88, 8.46, repro,
1999-07-16,-1.20, -6.40, 29.90, 2.21, 1.90, 8.82, repro,
1999-07-17,-0.17, -3.41, 20.21, 2.09, 1.83, 8.20, repro,
1999-07-18,0.14, -3.19, 20.71, 2.23, 1.89, 8.71, repro,
1999-07-19,-0.87, -4.73, 16.75, 2.21, 1.87, 8.67, repro,
1999-07-20,-0.82, -1.69, 27.64, 2.31, 1.93, 9.04, repro,
1999-07-21,-2.82, -3.66, 17.10, 2.11, 1.92, 8.29, repro,
1999-07-22,-1.45, -5.09, 14.78, 2.36, 2.12, 9.34, repro,
1999-07-23,-1.86, -3.33, 17.74, 2.22, 1.89, 8.77, repro,
1999-07-24,-2.23, -5.18, 10.58, 2.26, 2.02, 8.90, repro,
1999-07-25,-1.85, -3.91, 14.60, 2.19, 1.88, 8.46, repro,
1999-07-26,-2.76, -3.29, 10.89, 2.33, 2.00, 8.94, repro,
1999-07-27,-1.84, -4.98, 19.95, 2.19, 1.87, 8.46, repro,
1999-07-28,-0.69, -4.81, 17.62, 2.21, 1.97, 8.64, repro,
1999-07-29,-1.26, -4.39, 14.41, 2.14, 1.93, 8.34, repro,
1999-07-30,-0.99, -3.55, 30.55, 2.18, 1.99, 8.62, repro,
1999-07-31,-2.44, -4.85, 14.01, 2.09, 1.84, 8.07, repro,
1999-08-01,-0.96, -5.46, 11.04, 2.07, 1.83, 8.01, repro,
1999-08-02,-1.62, -3.18, 6.02, 2.17, 1.92, 8.41, repro,
1999-08-03,-1.33, -3.11, 8.42, 2.15, 1.88, 8.21, repro,
1999-08-04,-1.14, -3.13, 4.73, 2.31, 2.09, 9.21, repro,
1999-08-05,-2.35, -2.41, 12.89, 2.17, 1.87, 8.16, repro,
1999-08-06,-2.00, -4.00, 14.41, 2.14, 1.87, 8.21, repro,
1999-08-07,-1.28, -4.84, 16.99, 2.22, 1.92, 8.50, repro,
1999-08-08,-1.73, -3.20, 14.13, 2.09, 1.84, 8.09, repro,
1999-08-09,-0.99, -4.33, 12.31, 2.19, 1.96, 8.41, repro,
1999-08-10,-1.45, -4.46, 11.94, 2.16, 1.96, 8.38, repro,
1999-08-11,-0.40, -2.66, 10.12, 2.12, 1.90, 8.21, repro,
1999-08-12,-0.41, -3.89, 12.18, 2.20, 1.92, 8.59, repro,
1999-08-13,-1.63, -4.85, 9.02, 2.20, 1.92, 8.53, repro,
1999-08-14,-0.74, -2.92, 11.79, 2.17, 1.90, 8.37, repro,
1999-08-15,-1.52, -3.04, 17.13, 2.23, 1.91, 8.58, repro,
1999-08-16,0.69, -3.04, 13.39, 2.07, 1.84, 8.05, repro,
1999-08-17,0.54, -3.68, 13.29, 2.09, 1.88, 8.12, repro,
1999-08-18,-1.42, -3.31, 6.97, 2.09, 1.86, 8.19, repro,
1999-08-19,-0.74, -3.54, 21.98, 2.10, 1.88, 8.23, repro,
1999-08-20,-0.84, -2.81, 16.01, 2.17, 1.91, 8.44, repro,
1999-08-21,-0.76, -3.88, 11.39, 2.09, 1.88, 8.27, repro,
1999-08-22,-2.10, -3.72, 7.76, 2.10, 1.91, 8.30, repro,
1999-08-23,-2.70, -3.25, 9.18, 2.24, 1.92, 8.59, repro,
1999-08-24,0.39, -2.65, 11.75, 2.17, 1.91, 8.47, repro,
1999-08-25,-0.54, -2.98, 13.51, 2.18, 1.92, 8.45, repro,
1999-08-26,-1.14, -3.42, 14.05, 2.26, 1.90, 8.88, repro,
1999-08-27,0.20, -2.29, 17.68, 2.18, 1.96, 8.42, repro,
1999-08-28,-1.21, -3.61, 13.81, 2.16, 1.97, 8.47, repro,
1999-08-29,2.45, -2.84, 30.71, 2.24, 2.02, 10.30, repro,
1999-08-30,-0.86, -3.37, 18.36, 2.22, 1.99, 8.53, repro,
1999-08-31,-0.50, -2.59, 13.50, 2.21, 2.02, 8.57, repro,
1999-09-01,-0.58, -2.58, 19.50, 2.37, 2.05, 9.07, repro,
1999-09-02,-0.23, -4.02, 12.11, 2.22, 1.98, 8.54, repro,
1999-09-03,-1.02, -3.91, 9.72, 2.24, 2.00, 8.75, repro,
1999-09-04,0.90, -3.37, 18.03, 2.26, 1.96, 8.67, repro,
1999-09-05,-1.31, -2.39, 9.61, 2.14, 1.91, 8.35, repro,
1999-09-06,-1.18, -3.00, 19.07, 2.25, 2.00, 8.73, repro,
1999-09-07,0.93, -2.64, 11.35, 2.51, 2.04, 9.82, repro,
1999-09-08,0.13, -2.38, 11.69, 2.43, 2.04, 9.55, repro,
1999-09-09,0.07, -2.29, -0.40, 2.24, 1.92, 8.55, repro,
1999-09-10,0.55, -2.77, 21.96, 2.24, 1.96, 8.49, repro,
1999-09-11,-0.93, -2.22, 11.12, 2.37, 2.01, 8.87, repro,
1999-09-12,-1.67, -2.02, 11.75, 2.25, 1.94, 8.64, repro,
1999-09-13,-1.07, -4.03, 4.19, 2.23, 1.91, 8.52, repro,
1999-09-14,-1.00, -4.36, 9.71, 2.16, 1.89, 8.31, repro,
1999-09-15,0.61, -2.29, 13.31, 2.23, 1.93, 8.55, repro,
1999-09-16,-0.57, -4.46, 21.46, 2.21, 1.92, 8.43, repro,
1999-09-17,-0.47, -2.23, 16.43, 2.31, 2.00, 8.74, repro,
1999-09-18,-0.39, -2.11, 17.13, 2.33, 1.98, 8.75, repro,
1999-09-19,-0.64, -2.54, 12.64, 2.22, 1.94, 8.41, repro,
1999-09-20,-0.04, -3.18, 11.35, 2.24, 2.00, 8.58, repro,
1999-09-21,1.28, -1.40, 5.81, 2.35, 2.02, 8.85, repro,
1999-09-22,-0.55, -2.70, 13.36, 2.34, 2.01, 8.96, repro,
1999-09-23,0.74, -2.69, 13.27, 2.30, 2.03, 8.78, repro,
1999-09-24,0.09, -2.57, 12.02, 2.41, 2.08, 8.99, repro,
1999-09-25,1.00, -1.31, 19.54, 2.22, 2.00, 8.54, repro,
1999-09-26,0.67, -2.72, 18.37, 2.48, 2.32, 9.66, repro,
1999-09-27,1.06, -2.33, 13.45, 2.36, 2.10, 9.33, repro,
1999-09-28,0.62, -1.88, 6.89, 2.45, 2.20, 9.26, repro,
1999-09-29,0.49, -1.04, 11.40, 2.62, 2.38, 9.88, repro,
1999-09-30,-0.66, -2.44, 11.40, 2.76, 2.47, 10.34, repro,
1999-10-01,-1.16, -1.12, 14.76, 2.81, 2.59, 10.66, repro,
1999-10-02,1.22, -1.67, 14.36, 2.32, 2.14, 9.06, repro,
1999-10-03,0.74, -3.16, 11.65, 2.31, 2.10, 8.96, repro,
1999-10-04,0.71, -1.59, 5.23, 2.22, 2.00, 8.46, repro,
1999-10-05,-1.03, -2.87, 14.61, 2.37, 2.04, 8.71, repro,
1999-10-06,0.76, -1.88, 9.43, 2.27, 2.06, 8.73, repro,
1999-10-07,-0.26, -3.14, 13.16, 2.31, 1.99, 8.88, repro,
1999-10-08,1.35, -2.12, 15.89, 2.37, 2.09, 8.92, repro,
1999-10-09,-0.37, -3.00, 14.82, 2.32, 2.05, 8.88, repro,
1999-10-10,-0.67, -2.25, 17.93, 2.29, 2.00, 8.68, repro,
1999-10-11,-0.05, -3.38, 15.02, 2.24, 2.03, 8.58, repro,
1999-10-12,-0.36, -4.72, 12.39, 2.26, 1.97, 8.60, repro,
1999-10-13,0.07, -2.92, 9.02, 2.43, 2.14, 9.25, repro,
1999-10-14,-1.09, -3.73, 12.72, 2.19, 1.91, 8.42, repro,
1999-10-15,-0.96, -3.64, 15.72, 2.35, 2.12, 8.92, repro,
1999-10-16,-5.43, -11.55, 20.32, 2.13, 1.89, 8.30, repro,
1999-10-17,-1.38, -11.55, 23.73, 2.24, 1.87, 8.68, repro,
1999-10-18,-5.74, -12.87, 20.87, 2.36, 1.95, 8.95, repro,
1999-10-19,-3.26, -12.92, 22.51, 2.26, 1.86, 8.76, repro,
1999-10-20,-3.45, -12.36, 17.70, 2.10, 1.88, 8.16, repro,
1999-10-21,-2.70, -12.76, 19.20, 2.17, 1.94, 8.62, repro,
1999-10-22,-3.04, -12.55, 19.64, 2.31, 2.15, 9.26, repro,
1999-10-23,-3.41, -11.91, 16.56, 2.11, 1.91, 8.22, repro,
1999-10-24,-3.71, -11.60, 15.87, 2.19, 1.93, 8.58, repro,
1999-10-25,-2.83, -11.52, 19.99, 2.16, 1.91, 8.28, repro,
1999-10-26,-3.44, -13.14, 24.69, 2.05, 1.81, 8.09, repro,
1999-10-27,-2.76, -13.71, 23.82, 2.13, 1.85, 8.42, repro,
1999-10-28,-3.53, -13.54, 24.02, 2.18, 1.92, 8.45, repro,
1999-10-29,-3.16, -12.94, 23.33, 2.23, 1.99, 8.63, repro,
1999-10-30,-2.53, -13.76, 19.55, 2.10, 1.84, 8.15, repro,
1999-10-31,-2.57, -13.31, 23.56, 2.23, 1.91, 8.58, repro,
1999-11-01,-3.34, -12.58, 16.28, 2.42, 2.06, 9.38, repro,
1999-11-02,-2.48, -13.63, 27.04, 2.17, 1.92, 8.34, repro,
1999-11-03,-2.46, -13.40, 24.78, 2.40, 1.98, 9.33, repro,
1999-11-04,-4.07, -14.87, 23.58, 2.22, 1.87, 8.54, repro,
1999-11-05,-2.85, -13.37, 19.35, 2.15, 1.83, 8.30, repro,
1999-11-06,-4.07, -14.30, 16.16, 2.18, 1.87, 8.43, repro,
1999-11-07,-3.38, -12.37, 26.65, 2.22, 1.89, 8.53, repro,
1999-11-08,-2.39, -15.01, 24.04, 2.16, 1.83, 8.46, repro,
1999-11-09,-3.25, -13.87, 25.31, 2.10, 1.83, 8.14, repro,
1999-11-10,-5.71, -14.44, 22.18, 2.12, 1.81, 8.37, repro,
1999-11-11,-4.04, -14.17, 16.55, 2.07, 1.79, 8.08, repro,
1999-11-12,-3.14, -13.81, 17.61, 2.11, 1.85, 8.13, repro,
1999-11-13,-3.29, -15.47, 23.31, 2.20, 1.88, 8.47, repro,
1999-11-14,-2.60, -14.92, 25.61, 2.10, 1.82, 8.18, repro,
1999-11-15,-3.68, -13.78, 10.69, 2.18, 1.84, 8.47, repro,
1999-11-16,-5.12, -14.28, 27.23, 2.15, 1.92, 8.46, repro,
1999-11-17,-3.79, -15.40, 23.79, 2.09, 1.84, 8.21, repro,
1999-11-18,-4.08, -14.38, 30.55, 2.17, 1.85, 8.33, repro,
1999-11-19,-4.79, -15.09, 22.89, 2.18, 1.97, 8.49, repro,
1999-11-20,-3.83, -15.74, 27.74, 2.18, 1.94, 8.38, repro,
1999-11-21,-5.10, -14.73, 21.58, 2.34, 2.07, 8.93, repro,
1999-11-22,-4.03, -16.53, 27.78, 2.21, 1.93, 8.58, repro,
1999-11-23,-3.05, -14.16, 12.87, 2.36, 2.24, 9.55, repro,
1999-11-24,-3.66, -14.27, 19.79, 2.58, 2.53, 10.75, repro,
1999-11-25,-3.85, -14.21, 22.77, 2.29, 2.03, 8.99, repro,
1999-11-26,-4.51, -15.06, 21.77, 2.22, 2.15, 8.83, repro,
1999-11-27,-4.82, -15.28, 25.56, 2.01, 1.80, 8.02, repro,
1999-11-28,-5.34, -14.74, 12.14, 2.07, 1.89, 8.17, repro,
1999-11-29,-3.37, -13.70, 11.49, 2.10, 1.88, 8.33, repro,
1999-11-30,-3.54, -13.75, 13.19, 2.17, 1.90, 8.51, repro,
1999-12-01,-3.02, -14.39, 24.22, 2.27, 2.14, 9.22, repro,
1999-12-02,-4.47, -16.08, 21.70, 2.00, 1.79, 7.95, repro,
1999-12-03,-4.73, -14.42, 16.21, 2.36, 2.31, 9.72, repro,
1999-12-04,-5.90, -15.32, 14.05, 2.21, 2.00, 8.57, repro,
1999-12-05,-5.69, -14.17, 12.22, 2.07, 1.86, 8.26, repro,
1999-12-06,-3.41, -15.01, 9.97, 2.24, 2.00, 9.03, repro,
1999-12-07,-6.09, -15.49, 26.20, 2.28, 1.99, 9.16, repro,
1999-12-08,-6.45, -14.01, 14.45, 2.63, 2.34, 10.06, repro,
1999-12-09,-5.26, -13.47, 19.37, 2.24, 2.17, 9.00, repro,
1999-12-10,-4.23, -15.35, 19.86, 2.07, 1.86, 8.16, repro,
1999-12-11,-4.73, -15.14, 15.28, 2.21, 2.10, 8.96, repro,